Location: *
(2.5500°S, 65.9667°W)
Time: 11:43:23
(UTC+00:00)

Cosmos 1408 - Pass Details

Date: 26 October 2021
Orbit: 465 x 490 km, 82.6° (Epoch: 15 November)

Event Time Altitude Azimuth Distance (km) Brightness Sun altitude
Exits shadow 23:08:33 15° 28° (NNE) 1,331 4.4 -14.2°
Maximum altitude 23:10:57 32° 87° (E) 810 3.1 -14.8°
Drops below altitude 10° 23:14:09 10° 152° (SSE) 1,619 5.1 -15.6°
Sets 23:16:22 0° 161° (SSE) 2,500 6.1 -16.1°
